This demonstration page uses our WeatherBlox Daily Observations layout. Learn more.

Left ArrowRight Arrow

30.21309, -93.2044

Hourly Observations for May 15, 2015

Temp ( °F °C ) Dew Point ( °F °C ) Humidity (%) Winds ( mph kmh ) Pressure ( in mb ) Visibility ( mi km ) Precip ( " mm )
12:15 am 00:15 Clear 73 22.7 72 22.3 98 98 ESE 5 7 30.06 1018 7 11 0.00 0.00
12:35 am 00:35 Clear 74 23.2 73 22.7 97 97 SSE 6 9 30.06 1018 7 11 0.00 0.00
12:55 am 00:55 Clear 73 22.9 73 22.5 98 98 SE 7 11 30.06 1018 7 11 0.00 0.00
1:15 am 01:15 Clear 74 23.3 73 22.9 98 98 SE 7 11 30.03 1017 7 11 0.00 0.00
1:35 am 01:35 Clear 74 23.4 73 22.8 96 96 SE 6 9 30.03 1017 7 11 0.00 0.00
1:55 am 01:55 Clear with Mist and Fog 73 23 73 22.6 98 98 SE 6 9 30.03 1017 5 8 0.00 0.00
2:15 am 02:15 Clear 73 23 73 22.5 97 97 SSE 6 9 30.03 1017 7 11 0.00 0.00
2:35 am 02:35 Clear with Mist and Fog 73 23 73 22.6 98 98 SE 6 9 30.03 1017 5 8 0.00 0.00
2:55 am 02:55 Clear with Mist and Fog 73 22.8 73 22.5 98 98 SE 6 9 30.03 1017 5 8 0.00 0.00
3:15 am 03:15 Clear with Mist and Fog 73 22.8 73 22.5 98 98 SSE 6 9 30.03 1017 5 8 0.00 0.00
3:35 am 03:35 Clear with Mist and Fog 73 22.5 72 22.2 98 98 SSE 5 7 30.00 1016 5 8 0.00 0.00
3:55 am 03:55 Clear with Mist and Fog 73 22.6 72 22.3 98 98 SE 6 9 30.00 1016 5 8 0.00 0.00
4:15 am 04:15 Clear with Mist and Fog 73 22.6 72 22.3 98 98 SE 5 7 30.00 1016 5 8 0.00 0.00
4:35 am 04:35 Clear with Mist and Fog 72 22.4 72 22.1 98 98 Calm 30.03 1017 5 8 0.00 0.00
4:55 am 04:55 Clear with Mist and Fog 72 22.4 72 22.2 99 99 SE 3 6 30.03 1017 4 6 0.00 0.00
5:15 am 05:15 Clear with Mist and Fog 72 22.3 72 22.1 99 99 ESE 5 7 30.00 1016 5 8 0.00 0.00
6:00 am 06:00 Mostly Cloudy 73 23 72 22 94 94 ESE 7 11 30.00 1016 10 16 0.00 0.00
6:50 am 06:50 Mostly Cloudy with Mist and Fog 73 23 72 22 94 94 Calm 30.03 1017 5 8 0.00 0.00
7:45 am 07:45 Mostly Cloudy with Mist and Fog 73 23 72 22 94 94 Calm 30.03 1017 5 8 0.00 0.00
8:45 am 08:45 Mostly Cloudy with Mist and Fog 77 25 72 22 83 83 ESE 6 9 30.06 1018 6 10 0.00 0.00
9:32 am 09:32 Cloudy with Heavy Rain 77 25 75 24 94 94 SSW 3 6 30.06 1018 3 5 0.00 0.00
9:50 am 09:50 Cloudy with Heavy Rain 77 25 75 24 94 94 SSW 3 6 30.06 1018 3 5 0.00 0.00
10:50 am 10:50 Cloudy 79 26 75 24 89 89 SE 6 9 30.06 1018 10 16 0.00 0.00
11:50 am 11:50 Cloudy 79 26 73 23 84 84 ESE 7 11 30.06 1018 10 16 0.00 0.00
9:50 pm 21:50 Mostly Clear 75 24 73 23 94 94 SSE 8 13 30.00 1016 10 16 0.00 0.00
10:15 pm 22:15 Clear 76 24.2 74 23.2 94 94 SSE 7 11 30.00 1016 10 16 0.00 0.00
10:35 pm 22:35 Clear 75 24 73 23 94 94 SE 5 7 30.00 1016 10 16 0.00 0.00
10:55 pm 22:55 Clear 74 23.6 74 23.1 97 97 SE 7 11 30.00 1016 10 16 0.00 0.00
11:15 pm 23:15 Clear 75 23.9 74 23.1 95 95 ESE 6 9 30.00 1016 10 16 0.00 0.00
11:35 pm 23:35 Clear 74 23.5 73 22.9 96 96 SE 3 6 30.00 1016 7 11 0.00 0.00
11:55 pm 23:55 Clear 74 23.2 73 22.8 98 98 Calm 30.00 1016 7 11 0.00 0.00

Powered by AerisWeather